�������l�o���
Date,Time,MP-1(��Sv/h),MP-2(��Sv/h),MP-3(��Sv/h),MP-4(��Sv/h),MP-5(��Sv/h),MP-6(��Sv/h),MP-7(��Sv/h),MP-8(��Sv/h),����,����(m/s),���J
2017/07/26,00:00,0.934,1.451,0.989,1.750,1.196,0.515,0.928,0.859,�k�k��,1.1,�L
2017/07/26,00:10,0.935,1.453,0.988,1.745,1.196,0.516,0.928,0.861,���k��,1.2,�L
2017/07/26,00:20,0.933,1.453,0.990,1.745,1.197,0.516,0.929,0.862,�k�k��,0.6,�L
2017/07/26,00:30,0.932,1.451,0.990,1.746,1.193,0.516,0.928,0.860,�k�k��,0.9,��
2017/07/26,00:40,0.934,1.454,0.989,1.744,1.195,0.515,0.928,0.860,-,CALM,��
2017/07/26,00:50,0.934,1.455,0.987,1.746,1.196,0.514,0.931,0.860,�k�k��,0.6,��
2017/07/26,01:00,0.931,1.456,0.989,1.747,1.196,0.513,0.929,0.858,�k��,0.6,��
2017/07/26,01:10,0.932,1.455,0.987,1.747,1.194,0.513,0.930,0.859,-,CALM,�L
2017/07/26,01:20,0.932,1.456,0.989,1.747,1.196,0.512,0.931,0.860,-,CALM,��
2017/07/26,01:30,0.932,1.458,0.989,1.748,1.199,0.513,0.930,0.861,�k��,0.6,��
2017/07/26,01:40,0.933,1.457,0.987,1.747,1.198,0.513,0.933,0.860,�k�k��,1.4,��
2017/07/26,01:50,0.934,1.456,0.991,1.747,1.199,0.512,0.930,0.863,�k��,0.8,��
2017/07/26,02:00,0.933,1.458,0.989,1.749,1.196,0.514,0.929,0.862,�k��,0.6,��
2017/07/26,02:10,0.934,1.457,0.989,1.750,1.197,0.514,0.930,0.863,-,CALM,��
2017/07/26,02:20,0.934,1.459,0.988,1.750,1.199,0.513,0.931,0.862,�k��,0.6,��
2017/07/26,02:30,0.934,1.459,0.988,1.751,1.199,0.513,0.932,0.863,�k�k��,1.7,��
2017/07/26,02:40,0.934,1.457,0.988,1.750,1.200,0.512,0.932,0.863,�k�k��,2.0,��
2017/07/26,02:50,0.935,1.460,0.989,1.750,1.200,0.513,0.930,0.862,�k�k��,2.6,�L
2017/07/26,03:00,0.934,1.458,0.989,1.752,1.200,0.513,0.930,0.864,�k�k��,2.5,�L
2017/07/26,03:10,0.934,1.459,0.990,1.752,1.203,0.514,0.932,0.863,�k�k��,3.3,��
2017/07/26,03:20,0.935,1.460,0.989,1.751,1.202,0.513,0.929,0.864,�k,2.8,��
2017/07/26,03:30,0.935,1.459,0.991,1.750,1.203,0.512,0.929,0.865,�k,1.7,��
2017/07/26,03:40,0.935,1.458,0.989,1.752,1.202,0.512,0.932,0.864,�k,2.6,��
2017/07/26,03:50,0.936,1.458,0.990,1.756,1.203,0.513,0.931,0.865,�k�k��,2.8,��
2017/07/26,04:00,0.937,1.461,0.991,1.754,1.202,0.512,0.932,0.864,�k�k��,2.0,��
2017/07/26,04:10,0.934,1.462,0.988,1.754,1.204,0.511,0.931,0.864,�k,2.5,��
2017/07/26,04:20,0.933,1.462,0.990,1.752,1.203,0.512,0.930,0.865,�k,2.3,��
2017/07/26,04:30,0.937,1.461,0.991,1.755,1.201,0.513,0.931,0.862,�k,2.3,��
2017/07/26,04:40,0.936,1.459,0.991,1.753,1.200,0.513,0.932,0.863,�k,2.0,��
2017/07/26,04:50,0.938,1.462,0.992,1.755,1.200,0.514,0.931,0.863,�k�k��,1.4,��
2017/07/26,05:00,0.935,1.462,0.989,1.756,1.202,0.512,0.931,0.864,�k�k��,1.7,��
2017/07/26,05:10,0.934,1.463,0.994,1.752,1.202,0.513,0.931,0.864,�k,0.6,��
2017/07/26,05:20,0.936,1.463,0.991,1.751,1.203,0.514,0.931,0.861,�k,1.2,��
2017/07/26,05:30,0.934,1.464,0.990,1.758,1.204,0.512,0.932,0.863,�k�k��,1.4,��
2017/07/26,05:40,0.937,1.465,0.990,1.756,1.203,0.513,0.934,0.863,�k,1.4,��
2017/07/26,05:50,0.933,1.462,0.991,1.757,1.204,0.512,0.934,0.864,�k,2.5,��
2017/07/26,06:00,0.934,1.463,0.990,1.756,1.203,0.512,0.934,0.863,�k,2.5,��
2017/07/26,06:10,0.933,1.465,0.990,1.756,1.204,0.512,0.933,0.861,�k,2.5,��
2017/07/26,06:20,0.934,1.464,0.989,1.760,1.206,0.511,0.933,0.862,�k,3.0,��
2017/07/26,06:30,0.934,1.462,0.988,1.756,1.204,0.512,0.931,0.862,�k,2.9,��
2017/07/26,06:40,0.933,1.465,0.986,1.756,1.202,0.513,0.930,0.863,�k,3.0,��
2017/07/26,06:50,0.934,1.463,0.989,1.757,1.206,0.511,0.931,0.862,�k,3.9,��
2017/07/26,07:00,0.936,1.462,0.991,1.759,1.205,0.511,0.933,0.864,�k,3.7,��
2017/07/26,07:10,0.937,1.464,0.989,1.760,1.206,0.511,0.933,0.864,�k,3.9,��
2017/07/26,07:20,0.935,1.461,0.989,1.760,1.210,0.512,0.932,0.866,�k,4.0,��
2017/07/26,07:30,0.935,1.463,0.989,1.759,1.208,0.511,0.933,0.864,�k�k��,4.5,��
2017/07/26,07:40,0.938,1.464,0.988,1.759,1.205,0.512,0.937,0.863,�k,4.4,��
2017/07/26,07:50,0.936,1.465,0.989,1.762,1.205,0.511,0.934,0.863,�k�k��,5.8,��
2017/07/26,08:00,0.938,1.464,0.989,1.759,1.208,0.512,0.935,0.863,�k,4.7,��
2017/07/26,08:10,0.936,1.466,0.990,1.761,1.207,0.513,0.934,0.863,�k�k��,5.1,��
2017/07/26,08:20,0.937,1.462,0.988,1.764,1.209,0.513,0.936,0.862,�k,3.4,��
2017/07/26,08:30,0.938,1.466,0.988,1.764,1.206,0.511,0.935,0.864,�k,5.2,��
2017/07/26,08:40,0.939,1.466,0.992,1.762,1.208,0.513,0.934,0.864,�k,6.8,��
2017/07/26,08:50,0.938,1.467,0.987,1.759,1.209,0.513,0.937,0.864,�k,5.7,��
2017/07/26,09:00,0.937,1.470,0.983,1.765,1.208,0.514,0.936,0.863,�k,5.4,��
2017/07/26,09:10,0.939,1.466,0.989,1.764,1.211,0.514,0.934,0.865,�k,5.9,��
2017/07/26,09:20,0.940,1.470,0.993,1.763,1.209,0.513,0.935,0.863,�k�k��,4.2,��
2017/07/26,09:30,0.943,1.471,0.992,1.765,1.211,0.513,0.937,0.865,�k�k��,5.8,��
2017/07/26,09:40,0.942,1.471,0.993,1.767,1.213,0.512,0.936,0.865,�k�k��,5.9,��
2017/07/26,09:50,0.942,1.473,0.991,1.766,1.213,0.513,0.938,0.866,�k�k��,5.7,��
2017/07/26,10:00,0.940,1.472,0.992,1.767,1.215,0.513,0.940,0.864,�k�k��,5.8,��
2017/07/26,10:10,0.942,1.474,0.994,1.769,1.216,0.513,0.938,0.864,�k�k��,6.0,��
2017/07/26,10:20,0.941,1.473,0.993,1.768,1.214,0.514,0.935,0.865,�k�k��,5.8,��
2017/07/26,10:30,0.945,1.474,0.993,1.768,1.217,0.513,0.937,0.864,�k��,5.8,��
2017/07/26,10:40,0.944,1.477,0.993,1.769,1.216,0.515,0.939,0.865,�k�k��,6.2,��
2017/07/26,10:50,0.944,1.478,0.993,1.768,1.217,0.515,0.937,0.866,�k�k��,5.7,��
2017/07/26,11:00,0.945,1.476,0.994,1.766,1.218,0.514,0.938,0.867,�k�k��,6.1,��
2017/07/26,11:10,0.947,1.477,0.995,1.770,1.219,0.516,0.942,0.868,�k�k��,6.9,��
2017/07/26,11:20,0.947,1.481,0.998,1.770,1.219,0.514,0.939,0.869,�k�k��,6.2,��
2017/07/26,11:30,0.950,1.482,1.000,1.769,1.222,0.516,0.939,0.868,�k�k��,6.9,��
2017/07/26,11:40,0.947,1.480,0.997,1.768,1.222,0.513,0.940,0.866,�k�k��,6.4,��
2017/07/26,11:50,0.951,1.483,0.996,1.770,1.223,0.514,0.941,0.868,�k�k��,5.9,��
2017/07/26,12:00,0.949,1.481,0.998,1.772,1.223,0.516,0.940,0.866,�k,6.5,��
2017/07/26,12:10,0.951,1.487,1.000,1.774,1.224,0.516,0.941,0.869,�k�k��,5.8,��
2017/07/26,12:20,0.951,1.486,1.000,1.773,1.224,0.516,0.942,0.869,�k�k��,6.2,��
2017/07/26,12:30,0.951,1.487,1.001,1.774,1.228,0.516,0.940,0.870,�k�k��,5.6,��
2017/07/26,12:40,0.951,1.485,1.002,1.774,1.227,0.517,0.941,0.869,�k�k��,6.9,��
2017/07/26,12:50,0.951,1.492,1.002,1.779,1.230,0.517,0.941,0.868,�k�k��,6.0,��
2017/07/26,13:00,0.952,1.488,1.002,1.779,1.230,0.516,0.941,0.869,�k�k��,6.1,��
2017/07/26,13:10,0.953,1.491,1.001,1.775,1.230,0.516,0.941,0.868,�k�k��,5.5,��
2017/07/26,13:20,0.953,1.490,1.001,1.777,1.228,0.517,0.944,0.869,�k�k��,5.5,��
2017/07/26,13:30,0.955,1.489,1.001,1.778,1.231,0.516,0.942,0.869,�k�k��,5.8,��
2017/07/26,13:40,0.954,1.488,1.003,1.779,1.231,0.516,0.942,0.869,�k�k��,5.8,��
2017/07/26,13:50,0.955,1.493,1.004,1.777,1.233,0.516,0.944,0.869,�k�k��,5.8,��
2017/07/26,14:00,0.955,1.492,1.004,1.779,1.232,0.516,0.942,0.869,�k�k��,5.3,��
2017/07/26,14:10,0.953,1.495,1.005,1.780,1.232,0.515,0.944,0.870,�k�k��,5.1,��
2017/07/26,14:20,0.955,1.495,1.006,1.780,1.235,0.518,0.943,0.870,�k��,4.6,��
2017/07/26,14:30,0.955,1.494,1.007,1.782,1.233,0.516,0.942,0.869,�k�k��,5.1,��
2017/07/26,14:40,0.956,1.493,1.007,1.778,1.233,0.518,0.943,0.869,�k�k��,4.7,��
2017/07/26,14:50,0.956,1.496,1.008,1.783,1.234,0.517,0.944,0.871,�k�k��,2.9,��
2017/07/26,15:00,0.956,1.497,1.009,1.784,1.235,0.518,0.943,0.871,�k��,4.4,��
2017/07/26,15:10,0.957,1.496,1.007,1.786,1.233,0.516,0.944,0.871,�k��,4.0,��
2017/07/26,15:20,0.959,1.497,1.007,1.786,1.234,0.518,0.943,0.870,�k��,2.9,��
2017/07/26,15:30,0.956,1.498,1.008,1.785,1.233,0.518,0.945,0.868,�k��,3.2,��
2017/07/26,15:40,0.960,1.499,1.008,1.784,1.236,0.517,0.946,0.872,�k��,3.2,��
2017/07/26,15:50,0.958,1.498,1.008,1.785,1.235,0.517,0.945,0.872,�k��,3.5,��
2017/07/26,16:00,0.959,1.498,1.009,1.787,1.234,0.516,0.944,0.871,�k��,3.2,��
2017/07/26,16:10,0.957,1.496,1.010,1.789,1.236,0.516,0.944,0.871,�k��,3.7,��
2017/07/26,16:20,0.959,1.496,1.010,1.788,1.236,0.518,0.945,0.871,�k�k��,4.2,��
2017/07/26,16:30,0.958,1.500,1.009,1.787,1.235,0.518,0.943,0.871,�k�k��,3.4,��
2017/07/26,16:40,0.959,1.497,1.010,1.791,1.237,0.518,0.945,0.869,�k�k��,3.3,��
2017/07/26,16:50,0.960,1.500,1.011,1.789,1.236,0.517,0.946,0.872,�k,3.4,��
2017/07/26,17:00,0.958,1.499,1.010,1.787,1.238,0.518,0.944,0.871,�k�k��,2.8,��
2017/07/26,17:10,0.959,1.500,1.009,1.786,1.238,0.518,0.944,0.872,�k�k��,3.0,��
2017/07/26,17:20,0.959,1.500,1.008,1.786,1.238,0.518,0.945,0.871,�k,2.8,��
2017/07/26,17:30,0.959,1.499,1.009,1.790,1.237,0.519,0.946,0.872,�k,2.9,��
2017/07/26,17:40,0.959,1.499,1.011,1.789,1.235,0.518,0.945,0.873,�k�k��,2.6,��
2017/07/26,17:50,0.959,1.498,1.010,1.791,1.237,0.518,0.945,0.874,�k,2.6,��
2017/07/26,18:00,0.956,1.499,1.011,1.789,1.239,0.521,0.946,0.873,�k�k��,2.6,��
2017/07/26,18:10,0.956,1.499,1.010,1.792,1.240,0.518,0.946,0.875,�k,1.7,��
2017/07/26,18:20,0.958,1.501,1.011,1.791,1.240,0.518,0.945,0.873,�k,1.7,��
2017/07/26,18:30,0.957,1.502,1.012,1.791,1.243,0.519,0.947,0.873,�k,2.0,��
2017/07/26,18:40,0.957,1.503,1.009,1.792,1.241,0.521,0.946,0.872,�k,2.3,��
2017/07/26,18:50,0.957,1.501,1.009,1.789,1.239,0.519,0.945,0.874,�k�k��,2.2,��
2017/07/26,19:00,0.959,1.502,1.010,1.789,1.239,0.519,0.945,0.874,�k�k��,1.7,��
2017/07/26,19:10,0.960,1.502,1.011,1.792,1.242,0.520,0.945,0.875,�k,1.5,��
2017/07/26,19:20,0.961,1.504,1.012,1.787,1.238,0.519,0.944,0.873,�k,0.9,��
2017/07/26,19:30,0.963,1.503,1.014,1.789,1.241,0.518,0.945,0.874,�k,1.4,��
2017/07/26,19:40,0.958,1.501,1.015,1.790,1.238,0.520,0.946,0.873,�k,1.7,��
2017/07/26,19:50,0.963,1.501,1.011,1.788,1.240,0.519,0.947,0.874,�k,2.3,��
2017/07/26,20:00,0.961,1.504,1.012,1.789,1.241,0.519,0.945,0.875,�k�k��,3.9,��
2017/07/26,20:10,0.960,1.503,1.013,1.792,1.242,0.518,0.944,0.874,�k,3.5,��
2017/07/26,20:20,0.958,1.503,1.012,1.791,1.241,0.518,0.946,0.873,�k�k��,4.6,��
2017/07/26,20:30,0.959,1.500,1.013,1.791,1.240,0.518,0.947,0.874,�k�k��,4.7,��
2017/07/26,20:40,0.959,1.503,1.012,1.792,1.241,0.519,0.946,0.872,�k�k��,4.7,��
2017/07/26,20:50,0.958,1.504,1.013,1.793,1.242,0.518,0.948,0.875,�k�k��,5.1,��
2017/07/26,21:00,0.961,1.501,1.013,1.791,1.241,0.518,0.948,0.872,�k�k��,4.7,��
2017/07/26,21:10,0.961,1.502,1.012,1.795,1.240,0.520,0.947,0.873,�k�k��,5.3,��
2017/07/26,21:20,0.960,1.503,1.014,1.793,1.239,0.518,0.947,0.872,�k�k��,5.2,��
2017/07/26,21:30,0.958,1.505,1.015,1.793,1.240,0.518,0.947,0.874,�k�k��,6.1,��
2017/07/26,21:40,0.959,1.500,1.012,1.791,1.241,0.519,0.948,0.874,�k�k��,5.9,��
2017/07/26,21:50,0.960,1.504,1.014,1.791,1.240,0.519,0.946,0.873,�k�k��,6.4,��
2017/07/26,22:00,0.961,1.503,1.011,1.794,1.241,0.521,0.947,0.874,�k�k��,6.3,��
2017/07/26,22:10,0.960,1.501,1.012,1.792,1.241,0.518,0.947,0.875,�k�k��,6.0,��
2017/07/26,22:20,0.958,1.503,1.014,1.790,1.243,0.519,0.946,0.875,�k�k��,6.7,��
2017/07/26,22:30,0.960,1.504,1.015,1.794,1.240,0.519,0.948,0.873,�k�k��,6.0,��
2017/07/26,22:40,0.962,1.505,1.014,1.793,1.241,0.519,0.947,0.875,�k�k��,5.9,��
2017/07/26,22:50,0.959,1.506,1.016,1.793,1.239,0.520,0.947,0.875,�k�k��,5.4,��
2017/07/26,23:00,0.961,1.507,1.015,1.795,1.241,0.520,0.945,0.875,�k�k��,5.5,��
2017/07/26,23:10,0.962,1.505,1.014,1.794,1.238,0.519,0.946,0.874,�k�k��,5.3,��
2017/07/26,23:20,0.961,1.505,1.014,1.795,1.240,0.520,0.947,0.876,�k�k��,5.5,��
2017/07/26,23:30,0.960,1.504,1.014,1.796,1.240,0.520,0.945,0.874,�k�k��,6.1,��
2017/07/26,23:40,0.959,1.504,1.014,1.795,1.239,0.519,0.946,0.874,�k�k��,5.7,��
2017/07/26,23:50,0.958,1.505,1.015,1.794,1.243,0.518,0.947,0.874,�k�k��,5.7,��
